TimePST,TemperatureF,Dew PointF,Humidity,Sea Level PressureIn,VisibilityMPH,Wind Direction,Wind SpeedMPH,Gust SpeedMPH,PrecipitationIn,Events,Conditions,WindDirDegrees,DateUTC
12:02 AM,44.6,42.8,93,30.38,1.0,Calm,Calm,-,N/A,,Overcast,0,2014-01-01 08:02:00
12:06 AM,44.6,42.8,93,30.39,0.5,Calm,Calm,-,N/A,Fog,Fog,0,2014-01-01 08:06:00
12:44 AM,44.6,42.8,93,30.39,0.8,NE,3.5,-,N/A,,Mist,40,2014-01-01 08:44:00
12:53 AM,44.1,42.1,93,30.42,0.8,Calm,Calm,-,N/A,,Overcast,0,2014-01-01 08:53:00
1:12 AM,44.6,42.8,93,30.39,1.5,Calm,Calm,-,N/A,,Overcast,0,2014-01-01 09:12:00
1:25 AM,44.6,42.8,93,30.40,1.5,Calm,Calm,-,N/A,,Overcast,0,2014-01-01 09:25:00
1:42 AM,42.8,42.8,100,30.40,0.8,Calm,Calm,-,N/A,,Overcast,0,2014-01-01 09:42:00
1:51 AM,42.8,41.0,93,30.40,0.2,Calm,Calm,-,N/A,Fog,Fog,0,2014-01-01 09:51:00
1:53 AM,42.1,41.0,96,30.43,0.2,Calm,Calm,-,N/A,Fog,Fog,0,2014-01-01 09:53:00
2:11 AM,42.8,39.2,87,30.41,0.2,North,3.5,-,N/A,Fog,Fog,350,2014-01-01 10:11:00
2:22 AM,42.8,39.2,87,30.41,0.2,Calm,Calm,-,N/A,Fog,Fog,0,2014-01-01 10:22:00
2:42 AM,42.8,41.0,93,30.41,0.2,NE,3.5,-,N/A,Fog,Fog,40,2014-01-01 10:42:00
2:53 AM,43.0,41.0,93,30.44,0.2,NNE,3.5,-,N/A,Fog,Fog,30,2014-01-01 10:53:00
3:21 AM,42.8,41.0,93,30.42,0.2,North,4.6,-,N/A,Fog,Fog,10,2014-01-01 11:21:00
3:53 AM,42.1,41.0,96,30.44,0.2,North,3.5,-,N/A,Fog,Fog,360,2014-01-01 11:53:00
4:20 AM,42.8,39.2,87,30.41,0.2,NNE,5.8,-,N/A,Fog,Fog,20,2014-01-01 12:20:00
4:42 AM,41.0,39.2,93,30.40,0.5,Calm,Calm,-,N/A,Fog,Fog,0,2014-01-01 12:42:00
4:53 AM,41.0,39.9,96,30.43,0.5,North,3.5,-,N/A,Fog,Fog,360,2014-01-01 12:53:00
5:10 AM,41.0,39.2,93,30.40,0.2,North,3.5,-,N/A,Fog,Fog,10,2014-01-01 13:10:00
5:39 AM,39.2,39.2,100,30.39,0.2,North,3.5,-,N/A,Fog,Fog,10,2014-01-01 13:39:00
5:53 AM,39.9,39.0,97,30.42,0.2,North,3.5,-,N/A,Fog,Fog,360,2014-01-01 13:53:00
6:06 AM,39.2,39.2,100,30.39,0.2,Calm,Calm,-,N/A,Fog,Fog,0,2014-01-01 14:06:00
6:39 AM,39.2,37.4,93,30.40,0.2,Calm,Calm,-,N/A,Fog,Fog,0,2014-01-01 14:39:00
6:53 AM,37.9,37.0,97,30.43,0.2,Calm,Calm,-,N/A,Fog,Fog,0,2014-01-01 14:53:00
7:08 AM,37.4,35.6,93,30.39,0.2,Calm,Calm,-,N/A,Fog,Fog,0,2014-01-01 15:08:00
7:11 AM,39.2,37.4,93,30.39,-9999.0,North,-9999.0,-,N/A,,Unknown,0,2014-01-01 15:11:00
7:25 AM,39.2,37.4,93,30.39,0.2,Calm,Calm,-,N/A,Fog,Fog,0,2014-01-01 15:25:00
7:51 AM,37.4,35.6,93,30.38,0.2,Calm,Calm,-,N/A,Fog,Fog,0,2014-01-01 15:51:00
7:53 AM,37.9,37.0,97,30.41,0.2,ENE,3.5,-,N/A,Fog,Fog,70,2014-01-01 15:53:00
8:43 AM,37.4,37.4,100,30.39,0.5,Calm,Calm,-,N/A,Fog,Fog,0,2014-01-01 16:43:00
8:53 AM,37.9,37.0,97,30.43,0.2,Calm,Calm,-,N/A,Fog,Fog,0,2014-01-01 16:53:00
9:04 AM,37.4,37.4,100,30.40,0.2,Calm,Calm,-,N/A,Fog,Fog,0,2014-01-01 17:04:00
9:29 AM,39.2,39.2,100,30.41,0.2,Calm,Calm,-,N/A,Fog,Fog,0,2014-01-01 17:29:00
9:53 AM,39.9,37.9,93,30.43,0.5,Calm,Calm,-,N/A,Fog,Fog,0,2014-01-01 17:53:00
9:59 AM,39.2,39.2,100,30.41,1.0,Calm,Calm,-,N/A,,Overcast,0,2014-01-01 17:59:00
10:07 AM,39.2,39.2,100,30.40,3.0,East,3.5,-,N/A,,Overcast,90,2014-01-01 18:07:00
10:20 AM,39.2,37.4,93,30.40,2.0,ENE,4.6,-,N/A,,Overcast,70,2014-01-01 18:20:00
10:53 AM,41.0,39.9,96,30.40,2.0,Calm,Calm,-,N/A,,Overcast,0,2014-01-01 18:53:00
11:13 AM,41.0,39.2,93,30.38,2.0,NW,3.5,-,N/A,,Mostly Cloudy,310,2014-01-01 19:13:00
11:21 AM,42.8,39.2,87,30.38,5.0,NNW,3.5,-,N/A,,Mostly Cloudy,330,2014-01-01 19:21:00
11:53 AM,42.1,39.9,92,30.40,10.0,North,3.5,-,N/A,,Overcast,10,2014-01-01 19:53:00
12:53 PM,45.0,41.0,86,30.38,10.0,Calm,Calm,-,N/A,,Overcast,0,2014-01-01 20:53:00
1:53 PM,46.0,39.9,79,30.37,10.0,Calm,Calm,-,N/A,,Scattered Clouds,0,2014-01-01 21:53:00
2:53 PM,46.0,39.9,79,30.37,10.0,Calm,Calm,-,N/A,,Overcast,0,2014-01-01 22:53:00
3:53 PM,45.0,41.0,86,30.38,10.0,Calm,Calm,-,N/A,,Overcast,0,2014-01-01 23:53:00
4:01 PM,44.6,41.0,87,30.35,10.0,Calm,Calm,-,N/A,,Overcast,0,2014-01-02 00:01:00
4:53 PM,44.1,39.9,85,30.38,10.0,NE,3.5,-,0.00,Rain,Light Rain,50,2014-01-02 00:53:00
5:53 PM,44.1,39.9,85,30.37,10.0,ENE,5.8,-,0.01,Rain,Light Rain,60,2014-01-02 01:53:00
6:53 PM,43.0,39.9,89,30.35,10.0,North,3.5,-,0.00,,Overcast,10,2014-01-02 02:53:00
7:53 PM,43.0,41.0,93,30.33,10.0,Calm,Calm,-,N/A,,Overcast,0,2014-01-02 03:53:00
8:53 PM,42.1,39.9,92,30.32,10.0,Calm,Calm,-,N/A,,Overcast,0,2014-01-02 04:53:00
9:53 PM,43.0,41.0,93,30.31,10.0,Calm,Calm,-,N/A,,Overcast,0,2014-01-02 05:53:00
10:53 PM,42.1,39.9,92,30.31,8.0,Calm,Calm,-,0.01,Rain,Light Rain,0,2014-01-02 06:53:00
11:53 PM,42.1,39.9,92,30.28,10.0,Calm,Calm,-,0.00,,Overcast,0,2014-01-02 07:53:00